[[{"header":{"parameterUnit":"m.s-1","parameterCategory":2,"la1":30.2991,"la2":30.254,"lo1":-89.0895,"lo2":-89.0444,"dy":0.0017,"dx":0.0017,"nx":28,"ny":28,"refTime":"2025-12-23T09:00:00:Z","depth":"0","parameterNumber":2,"parameterNumberName":"U-component_of_CURRENTS"},"data":[0,0,0,0,0,0,0,0,0,0,0,0,0,0,0,0,0,0,0,0,0,0,0,0,0,0,0,0,0,0,0,0,0,0,0,0,0,0,0,0,0,0,0,0,0,0,0,0,0,0,0,0,0,0,0,0,0,0,0.4048,0.4048,0,0.4038,0.4037,0.4037,0.4025,0.4026,0.4026,0.4026,0.3956,0.3954,0.3952,0,0,0,0,0,0,0,0,0,0,0,0,0,0.4098,0.4096,0.4048,0.4048,0.4048,0.4038,0.4037,0.4037,0.4025,0.4026,0.4026,0.4026,0.3956,0.3954,0.3952,0,0,0,0,0,0,0,0,0,0,0,0,0,0.4078,0.4096,0.4048,0.4043,0.4043,0.4038,0.4037,0.4037,0.4025,0.4026,0.4026,0.4026,0.3957,0.3954,0.3951,0.393,0,0,0.3942,0.3941,0,0,0,0,0,0,0,0,0.4079,0.4075,0.4044,0.4043,0.4043,0.4035,0.4029,0.3999,0.4025,0.4029,0.4026,0.4026,0.3978,0.3974,0.3968,0.3927,0.3924,0.3942,0.394,0.3939,0.3938,0,0,0,0,0,0,0,0.408,0.4076,0.4041,0.4044,0.4044,0.4056,0.4052,0.4024,0.4,0.4029,0.4028,0.4032,0.3978,0.3971,0.3966,0.3923,0.3942,0.3939,0.3938,0.3936,0.3897,0.3897,0,0,0,0,0,0,0.4085,0.4077,0.4041,0.4041,0.4065,0.4055,0.4051,0.4035,0.4001,0.3998,0.4032,0.4032,0.3976,0.397,0.3964,0.3976,0.3939,0.3936,0.3935,0.3896,0.3897,0.3898,0,0,0,0,0,0,0.4085,0.4081,0.4041,0.4062,0.4059,0.4054,0.4037,0.4035,0.4031,0.4005,0.3999,0.403,0.3976,0.3968,0.3955,0.3972,0.3935,0.3932,0.3895,0.3896,0.3897,0.3975,0,0,0,0,0,0,0.4086,0.408,0.4068,0.4062,0.4058,0.4042,0.4037,0.4035,0.4035,0.4034,0.4002,0.3995,0.3976,0.396,0.3952,0.3967,0.393,0.3894,0.3896,0.3897,0.3971,0.3978,0.3984,0,0,0,0,0,0.4088,0.4071,0.4067,0.4063,0.4041,0.4043,0.4041,0.4038,0.4035,0.4034,0.4022,0.3996,0.3963,0.3958,0.3949,0.3963,0.3894,0.3895,0.3897,0.3968,0.3977,0.3984,0,0,0,0,0,0,0.409,0.4069,0.4064,0.4042,0.4046,0.4042,0.4041,0.4039,0.4029,0.4028,0.4002,0.3995,0.399,0.3963,0.3959,0.3956,0.3925,0.3924,0.3982,0.399,0.3996,0.4037,0.3927,0,0,0,0,0,0.4084,0.4064,0.4058,0.4045,0.4045,0.4043,0.4043,0.4043,0.4037,0.4032,0.4015,0.3998,0.3988,0.398,0.396,0.3954,0.398,0.3958,0.3965,0.397,0.3997,0.4047,0.4061,0.3903,0.3903,0.3903,0,0,0.4089,0.407,0.4064,0.4044,0.4044,0.4054,0.4042,0.4045,0.4062,0.4024,0.4033,0.4014,0.3991,0.3993,0.3988,0.3974,0.4033,0.3972,0.3978,0.4002,0.405,0.4066,0.408,0.3904,0.3904,0.3904,0,0,0.409,0.4066,0.4054,0.4056,0.4054,0.406,0.4064,0.4063,0.4069,0.4076,0.406,0.4067,0.4033,0.4041,0.4035,0.4065,0.4064,0.404,0.4109,0.4156,0.4171,0.4183,0.426,0.4279,0.4046,0.4047,0.4047,0,0.4089,0.4075,0.4056,0.4052,0.4062,0.4066,0.4078,0.4088,0.4088,0.4101,0.4088,0.4093,0.4069,0.41,0.4115,0.4084,0.4115,0.4082,0.4168,0.4181,0.4193,0.4269,0.4289,0.405,0.405,0.405,0.4049,0,0.4094,0.4083,0.4081,0.4077,0.4085,0.4097,0.4114,0.4131,0.4141,0.4153,0.4183,0.4175,0.4183,0.4174,0.4155,0.422,0.4219,0.4171,0.4156,0.4215,0.429,0.4309,0.4056,0.4055,0.4053,0.4052,0,0,0.4059,0.4081,0.4072,0.4087,0.41,0.411,0.4148,0.4182,0.4216,0.4232,0.4285,0.4289,0.4292,0.4289,0.4271,0.432,0.4435,0.4288,0.4288,0.4379,0.457,0.4499,0.4514,0.4397,0.44,0.4403,0.4598,0,0.4062,0.4078,0.4081,0.411,0.4127,0.415,0.4185,0.4219,0.4252,0.4304,0.4332,0.4366,0.4332,0.4348,0.4393,0.4419,0.4486,0.4389,0.4487,0.4491,0.4433,0.4533,0.4291,0.4438,0.4617,0.4621,0.4623,0,0.4046,0.4062,0.4099,0.4138,0.4145,0.4165,0.423,0.4262,0.4335,0.4363,0.4419,0.4441,0.4529,0.4482,0.4606,0.4543,0.4574,0.46,0.4607,0.453,0.4456,0.4401,0.4466,0.4349,0.4653,0.4651,0.4648,0,0.4031,0.4061,0.41,0.4114,0.4167,0.4187,0.4213,0.4275,0.4318,0.4412,0.447,0.455,0.4611,0.4672,0.4728,0.4676,0.4869,0.4794,0.4776,0.4772,0.4582,0.4555,0.4554,0.4898,0.4898,0.4898,0.4897,0,0.4021,0.404,0.4099,0.4114,0.4151,0.4185,0.4232,0.4271,0.436,0.4421,0.4497,0.4582,0.466,0.4766,0.4796,0.4867,0.4927,0.4833,0.4825,0.4602,0.4576,0.4474,0.4433,0.4905,0.4903,0.4902,0.4901,0,0.3985,0.4038,0.4064,0.412,0.4142,0.4157,0.4223,0.4261,0.4357,0.4454,0.4498,0.4645,0.479,0.4879,0.5,0.4952,0.4883,0.5025,0.4779,0.4736,0.4559,0.4531,0.4423,0.4296,0.5043,0.5042,0.5042,0,0.3972,0.3988,0.404,0.405,0.4068,0.4111,0.4139,0.4237,0.4294,0.4485,0.4539,0.4728,0.4832,0.501,0.4974,0.5045,0.4908,0.4841,0.4683,0.4559,0.4523,0.4363,0.4252,0.4484,0.4479,0.4475,0.4471,0,0.3914,0.3931,0.3944,0.398,0.4007,0.4043,0.4102,0.4165,0.4299,0.4397,0.4544,0.4655,0.4818,0.4769,0.485,0.4846,0.4583,0.4759,0.4677,0.4145,0.3923,0.379,0.4383,0.4435,0.4439,0.4442,0.4443,0.4445,0.3837,0.3834,0.386,0.3879,0.3914,0.3958,0.3962,0.4057,0.4151,0.4256,0.4436,0.4494,0.4529,0.4603,0.4587,0.4356,0.438,0.4178,0.4184,0.4057,0.3822,0.4365,0.4362,0.4365,0.4367,0.437,0.4372,0,0.3729,0.3752,0.3761,0.3783,0.3772,0.384,0.392,0.3908,0.3968,0.408,0.4165,0.4123,0.41,0.4111,0.3934,0.3766,0.3588,0.3678,0.3381,0.3323,0.3846,0.3705,0.3498,0.3498,0.3498,0.3499,0.3499,0.3499,0.3678,0.3665,0.3685,0.3646,0.3653,0.362,0.3643,0.3645,0.3699,0.3628,0.3557,0.3599,0.3675,0.3655,0.3456,0.3367,0.3117,0.2965,0.3031,0.3385,0.343,0.3473,0.3329,0.3047,0.3047,0.2298,0.2293,0.2289]},{"header":{"parameterUnit":"m.s-1","parameterCategory":2,"la1":30.2991,"la2":30.254,"lo1":-89.0895,"lo2":-89.0444,"dy":0.0017,"dx":0.0017,"nx":28,"ny":28,"refTime":"2025-12-23T09:00:00:Z","depth":"0","parameterNumber":3,"parameterNumberName":"V-component_of_CURRENTS"},"data":[0,0,0,0,0,0,0,0,0,0,0,0,0,0,0,0,0,0,0,0,0,0,0,0,0,0,0,0,0,0,0,0,0,0,0,0,0,0,0,0,0,0,0,0,0,0,0,0,0,0,0,0,0,0,0,0,0,0,-0.0329,-0.033,0,-0.0353,-0.0354,-0.0354,-0.0399,-0.04,-0.04,-0.0401,-0.0465,-0.0466,-0.0467,0,0,0,0,0,0,0,0,0,0,0,0,0,-0.0349,-0.0348,-0.0329,-0.033,-0.033,-0.0353,-0.0354,-0.0354,-0.0399,-0.04,-0.04,-0.0401,-0.0464,-0.0466,-0.0467,0,0,0,0,0,0,0,0,0,0,0,0,0,-0.0355,-0.0348,-0.0329,-0.0353,-0.0355,-0.0353,-0.0354,-0.0355,-0.0399,-0.04,-0.0401,-0.0401,-0.0464,-0.0465,-0.0467,-0.0457,0,0,-0.0472,-0.0473,0,0,0,0,0,0,0,0,-0.0355,-0.0355,-0.0349,-0.0351,-0.0354,-0.0372,-0.0384,-0.039,-0.0398,-0.0384,-0.0401,-0.0402,-0.0435,-0.0439,-0.0444,-0.046,-0.0463,-0.0472,-0.0473,-0.0474,-0.0474,0,0,0,0,0,0,0,-0.0354,-0.0354,-0.0341,-0.0349,-0.0352,-0.0371,-0.0373,-0.0386,-0.0406,-0.0386,-0.0388,-0.0387,-0.0437,-0.0442,-0.0446,-0.0464,-0.0472,-0.0474,-0.0475,-0.0475,-0.0479,-0.0478,0,0,0,0,0,0,-0.0344,-0.0353,-0.034,-0.0342,-0.0354,-0.037,-0.0372,-0.0367,-0.0405,-0.0411,-0.0386,-0.0389,-0.0439,-0.0444,-0.0449,-0.0432,-0.0474,-0.0475,-0.0476,-0.048,-0.0479,-0.0478,0,0,0,0,0,0,-0.0344,-0.0343,-0.0339,-0.0347,-0.0348,-0.0368,-0.0362,-0.0367,-0.0372,-0.0405,-0.0413,-0.0387,-0.044,-0.0446,-0.0453,-0.0436,-0.0476,-0.0478,-0.0481,-0.048,-0.0478,-0.0405,0,0,0,0,0,0,-0.0345,-0.0342,-0.0332,-0.0346,-0.0347,-0.0327,-0.0361,-0.0367,-0.0369,-0.0373,-0.0408,-0.0415,-0.0441,-0.0451,-0.0455,-0.0439,-0.0479,-0.0482,-0.048,-0.0479,-0.0408,-0.0401,-0.0395,0,0,0,0,0,-0.0345,-0.0321,-0.0332,-0.033,-0.0333,-0.0326,-0.0328,-0.0348,-0.0368,-0.0359,-0.0386,-0.0414,-0.0444,-0.0451,-0.0456,-0.044,-0.0483,-0.0481,-0.0479,-0.0411,-0.0403,-0.0395,0,0,0,0,0,0,-0.0324,-0.0323,-0.0336,-0.0313,-0.0316,-0.0332,-0.0323,-0.0341,-0.0355,-0.0363,-0.0401,-0.0409,-0.0408,-0.0433,-0.044,-0.0437,-0.0468,-0.0467,-0.0415,-0.0407,-0.04,-0.0385,-0.048,0,0,0,0,0,-0.0314,-0.0297,-0.0304,-0.0287,-0.0284,-0.0304,-0.0304,-0.0319,-0.0334,-0.0342,-0.0366,-0.0391,-0.0403,-0.0412,-0.0427,-0.0423,-0.0424,-0.0417,-0.041,-0.0405,-0.0395,-0.0379,-0.0369,-0.0472,-0.0472,-0.0472,0,0,-0.0308,-0.0299,-0.0295,-0.0282,-0.0288,-0.0271,-0.0307,-0.0301,-0.029,-0.0345,-0.0339,-0.0367,-0.0396,-0.0393,-0.0395,-0.0412,-0.0372,-0.0402,-0.0397,-0.0391,-0.0375,-0.0365,-0.0356,-0.047,-0.047,-0.0471,0,0,-0.0271,-0.0272,-0.0243,-0.0237,-0.0232,-0.0243,-0.0238,-0.0251,-0.0258,-0.0258,-0.0292,-0.0306,-0.0329,-0.0342,-0.0354,-0.0318,-0.0336,-0.0327,-0.0282,-0.0265,-0.0256,-0.0249,-0.0219,-0.0209,-0.0325,-0.0325,-0.0325,0,-0.0259,-0.0226,-0.0235,-0.0201,-0.0189,-0.0226,-0.0195,-0.0203,-0.0219,-0.0212,-0.0247,-0.0267,-0.0302,-0.0285,-0.0285,-0.0301,-0.0291,-0.0309,-0.0255,-0.0248,-0.0241,-0.0212,-0.0203,-0.0321,-0.0322,-0.0322,-0.0323,0,-0.0204,-0.0176,-0.0156,-0.0128,-0.0116,-0.0097,-0.0106,-0.0103,-0.0126,-0.0134,-0.0128,-0.0175,-0.0187,-0.0203,-0.024,-0.0208,-0.0214,-0.0245,-0.0272,-0.0226,-0.0199,-0.019,-0.0316,-0.0317,-0.0318,-0.0319,0,0,-0.0167,-0.0127,-0.0116,-0.0092,-0.0076,-0.006,-0.0036,-0.0017,0.0005,-0.0025,0.0014,-0.0037,-0.0069,-0.0084,-0.0128,-0.0128,-0.0084,-0.0169,-0.017,-0.0132,-0.003,-0.0045,-0.0037,-0.0104,-0.0103,-0.0102,-0.0023,0,-0.0118,-0.0052,-0.0038,0.002,0.0048,0.004,0.0075,0.0085,0.0073,0.01,0.0061,0.0069,-0.002,-0.0027,-0.004,-0.0072,-0.006,-0.0101,-0.0086,-0.0085,-0.0099,-0.0027,-0.0032,0.0036,-0.0015,-0.0013,-0.0012,0,-0.0063,-0.0024,0.0036,0.0096,0.0112,0.0142,0.0186,0.021,0.0234,0.0234,0.0226,0.0193,0.0185,0.0104,0.0081,0.0059,0.0022,-0.0006,-0.0004,-0.0039,-0.0084,-0.0023,0.0054,-0.0124,0.0001,0.0,-0.0001,0,-0.0041,0.0033,0.0079,0.0097,0.0154,0.0189,0.022,0.0249,0.0292,0.0318,0.0355,0.0325,0.033,0.0273,0.0191,0.0141,0.0188,0.0112,0.0076,0.0075,0.0063,0.0058,-0.0026,0.0119,0.0119,0.0119,0.0119,0,0.0002,0.0045,0.0092,0.012,0.0203,0.0224,0.0304,0.0333,0.039,0.048,0.0421,0.0494,0.0371,0.0371,0.0271,0.0219,0.0253,0.011,0.01,0.0089,0.0086,-0.0078,-0.0193,0.0122,0.0121,0.0121,0.012,0,0.0023,0.004,0.0113,0.0186,0.0213,0.0273,0.0373,0.0433,0.0473,0.0591,0.0613,0.0638,0.0652,0.0544,0.0483,0.0341,0.0184,0.0258,0.0259,0.0247,-0.0007,-0.0117,-0.0202,-0.0284,0.0213,0.0213,0.0213,0,0.0034,0.0069,0.0169,0.0229,0.0268,0.035,0.0419,0.0472,0.0551,0.0702,0.0785,0.0832,0.0929,0.083,0.0604,0.0463,0.0267,0.0303,0.0184,0.0002,-0.0127,-0.0216,-0.0287,0.021,0.021,0.021,0.021,0,0.0085,0.012,0.0192,0.0309,0.0388,0.0486,0.059,0.0664,0.0762,0.0899,0.1106,0.1207,0.1121,0.0997,0.0747,0.0598,0.0146,0.0297,0.0113,-0.0126,-0.0231,-0.0322,0.0138,0.0211,0.0211,0.0211,0.0211,0.0211,0.0143,0.0206,0.0303,0.0418,0.0514,0.0639,0.0732,0.0874,0.1053,0.1306,0.1368,0.1607,0.1318,0.1003,0.0743,0.0203,0.0189,0.0012,-0.0095,-0.0161,-0.0282,0.0183,0.023,0.023,0.023,0.023,0.023,0,0.0229,0.0297,0.0409,0.0551,0.0676,0.0702,0.0867,0.0994,0.1246,0.1537,0.1764,0.1811,0.1434,0.0987,0.0262,-0.0124,-0.0295,-0.0345,-0.0489,-0.0537,-0.0106,-0.0151,-0.019,-0.019,-0.019,-0.0189,-0.0189,-0.0189,0.0283,0.0396,0.0448,0.0664,0.0767,0.093,0.1028,0.1248,0.1482,0.1871,0.2089,0.2222,0.1865,0.0557,-0.0318,-0.0523,-0.0821,-0.0872,-0.1006,-0.0747,-0.0723,-0.07,-0.077,-0.0938,-0.0939,-0.1398,-0.1403,-0.1407]}],[{"header":{"parameterUnit":"m.s-1","parameterCategory":2,"la1":30.2991,"la2":30.254,"lo1":-89.0895,"lo2":-89.0444,"dy":0.0017,"dx":0.0017,"nx":28,"ny":28,"refTime":"2025-12-23T09:00:00:Z","depth":"2","parameterNumber":2,"parameterNumberName":"U-component_of_CURRENTS"},"data":[0,0,0,0,0,0,0,0,0,0,0,0,0,0,0,0,0,0,0,0,0,0,0,0,0,0,0,0,0,0,0,0,0,0,0,0,0,0,0,0,0,0,0,0,0,0,0,0,0,0,0,0,0,0,0,0,0,0,0.2588,0.2588,0,0.2605,0.2605,0.2605,0.2589,0.2589,0.2588,0.2588,0.2613,0.2614,0.2616,0,0,0,0,0,0,0,0,0,0,0,0,0,0.2542,0.2543,0.2588,0.2588,0.2588,0.2605,0.2605,0.2605,0.2589,0.2589,0.2588,0.2588,0.2613,0.2614,0.2616,0,0,0,0,0,0,0,0,0,0,0,0,0,0.256,0.2543,0.2587,0.2583,0.2583,0.2605,0.2605,0.2605,0.259,0.2589,0.2588,0.2587,0.2613,0.2614,0.2616,0.2643,0,0,0.2621,0.2622,0,0,0,0,0,0,0,0,0.2559,0.2561,0.2584,0.2584,0.2584,0.2595,0.2598,0.2618,0.259,0.2586,0.2588,0.2587,0.2609,0.2611,0.2615,0.2644,0.2645,0.2621,0.2623,0.2623,0.2624,0,0,0,0,0,0,0,0.2558,0.256,0.2593,0.2584,0.2584,0.2581,0.2582,0.2602,0.2601,0.2586,0.2585,0.2589,0.2609,0.2613,0.2615,0.2645,0.2621,0.2623,0.2624,0.2625,0.27,0.27,0,0,0,0,0,0,0.2559,0.256,0.2593,0.2594,0.257,0.2582,0.2584,0.2591,0.2601,0.2602,0.259,0.2589,0.261,0.2613,0.2616,0.2672,0.2623,0.2625,0.2626,0.2699,0.27,0.2701,0,0,0,0,0,0,0.2558,0.2562,0.2592,0.2578,0.2581,0.2584,0.2592,0.2592,0.2605,0.2604,0.2604,0.2604,0.261,0.2613,0.263,0.2672,0.2626,0.2627,0.2698,0.2699,0.27,0.2768,0,0,0,0,0,0,0.2557,0.2561,0.2571,0.2578,0.2582,0.2605,0.2593,0.2593,0.2608,0.2607,0.2616,0.2617,0.2609,0.2627,0.2631,0.2673,0.2629,0.2696,0.2698,0.27,0.2765,0.2772,0.2778,0,0,0,0,0,0.2555,0.2565,0.2571,0.2575,0.2594,0.2606,0.2608,0.2606,0.261,0.2616,0.2618,0.2617,0.2641,0.2629,0.2634,0.2677,0.2695,0.2698,0.27,0.2762,0.277,0.2778,0,0,0,0,0,0,0.2559,0.2565,0.2571,0.2586,0.2598,0.2604,0.2617,0.2619,0.2627,0.2631,0.2627,0.2628,0.2667,0.2655,0.2641,0.2701,0.267,0.2674,0.2716,0.2724,0.273,0.2739,0.263,0,0,0,0,0,0.2565,0.2567,0.2581,0.2595,0.2607,0.2619,0.2627,0.2627,0.2634,0.2638,0.2646,0.2656,0.268,0.2685,0.2701,0.2729,0.2744,0.2759,0.2766,0.2771,0.2781,0.284,0.2853,0.2708,0.2708,0.2708,0,0,0.2558,0.2576,0.2569,0.2596,0.2612,0.263,0.2622,0.2641,0.2663,0.2642,0.2678,0.2688,0.2694,0.2728,0.2744,0.2721,0.282,0.2774,0.2779,0.2785,0.2843,0.2858,0.2871,0.2709,0.2709,0.2709,0,0,0.2565,0.2583,0.2589,0.2607,0.2637,0.2646,0.2657,0.2674,0.2691,0.2718,0.2721,0.2747,0.277,0.2785,0.2796,0.2847,0.2862,0.2856,0.2891,0.2948,0.2961,0.2973,0.3012,0.3027,0.2849,0.2849,0.2849,0,0.2562,0.2581,0.2594,0.2623,0.264,0.2658,0.2678,0.2704,0.2723,0.2747,0.2734,0.2795,0.2801,0.2855,0.287,0.2866,0.2894,0.2863,0.2959,0.2971,0.2982,0.3019,0.3035,0.2853,0.2852,0.2852,0.2852,0,0.2586,0.2596,0.2612,0.2649,0.2672,0.269,0.2729,0.2754,0.2778,0.2805,0.2867,0.2874,0.2907,0.2919,0.291,0.2993,0.2987,0.2972,0.2944,0.3001,0.3036,0.3051,0.2858,0.2857,0.2856,0.2855,0,0,0.2564,0.2612,0.2609,0.2631,0.2685,0.2703,0.2756,0.2804,0.2856,0.2881,0.2941,0.2983,0.3,0.3012,0.3017,0.3056,0.3155,0.3047,0.3049,0.3094,0.3283,0.3217,0.3227,0.3165,0.3168,0.3171,0.3278,0,0.2572,0.2609,0.2636,0.2668,0.2693,0.2732,0.2786,0.2839,0.2893,0.2957,0.2991,0.3059,0.3036,0.3066,0.3105,0.3154,0.3197,0.3127,0.3213,0.3216,0.3158,0.3243,0.2974,0.3042,0.3292,0.3294,0.3296,0,0.2579,0.2605,0.2634,0.2688,0.2706,0.2737,0.2825,0.2877,0.2978,0.3026,0.309,0.3131,0.3208,0.3174,0.3286,0.3247,0.3274,0.3295,0.33,0.3225,0.3178,0.3024,0.3059,0.3321,0.3319,0.3317,0.3315,0,0.2551,0.2596,0.2617,0.2635,0.2709,0.274,0.2791,0.2897,0.2969,0.3084,0.3149,0.3233,0.3298,0.3346,0.3398,0.336,0.3512,0.3461,0.3422,0.3417,0.3197,0.3168,0.3541,0.3541,0.354,0.354,0.354,0,0.2537,0.2548,0.2607,0.2616,0.2665,0.2738,0.2822,0.2884,0.3013,0.3091,0.3191,0.326,0.3352,0.3439,0.345,0.3497,0.3562,0.3454,0.3453,0.3211,0.3183,0.3423,0.3407,0.3544,0.3543,0.3543,0.3542,0,0.2487,0.252,0.2551,0.2623,0.2649,0.269,0.282,0.289,0.3026,0.3128,0.3173,0.333,0.3436,0.3516,0.3613,0.3576,0.3615,0.3609,0.3315,0.3277,0.3461,0.3448,0.3572,0.3571,0.357,0.3569,0.3568,0,0.2452,0.2469,0.2536,0.2564,0.2594,0.2674,0.273,0.2867,0.2938,0.3139,0.3168,0.3346,0.3406,0.3554,0.3545,0.358,0.363,0.3338,0.3206,0.3484,0.3471,0.346,0.3448,0.294,0.2934,0.2929,0.2926,0,0.2398,0.2432,0.2456,0.2514,0.2564,0.2618,0.2701,0.2756,0.2905,0.2991,0.3101,0.3185,0.3343,0.3267,0.3351,0.3318,0.3308,0.3242,0.3639,0.2973,0.2897,0.2882,0.289,0.2884,0.2888,0.2891,0.2893,0.2895,0.2352,0.2361,0.2406,0.2455,0.2507,0.2537,0.2529,0.2619,0.268,0.276,0.2917,0.295,0.303,0.3015,0.2943,0.2904,0.3117,0.2961,0.2971,0.2988,0.2896,0.2822,0.2777,0.278,0.2783,0.2785,0.2788,0,0.2282,0.2313,0.2353,0.2369,0.2364,0.2442,0.248,0.2432,0.2415,0.2545,0.2607,0.2453,0.2447,0.2532,0.241,0.2424,0.2363,0.2318,0.2204,0.2251,0.2291,0.2157,0.1845,0.1842,0.1838,0.1836,0,0,0.2248,0.2246,0.2265,0.2211,0.2232,0.2175,0.2164,0.2109,0.2143,0.2106,0.2122,0.2344,0.2464,0.2116,0.2086,0.1939,0.2067,0.1863,0.2629,0.2542,0.2577,0.2686,0.2537,0,0,0,0,0]},{"header":{"parameterUnit":"m.s-1","parameterCategory":2,"la1":30.2991,"la2":30.254,"lo1":-89.0895,"lo2":-89.0444,"dy":0.0017,"dx":0.0017,"nx":28,"ny":28,"refTime":"2025-12-23T09:00:00:Z","depth":"2","parameterNumber":3,"parameterNumberName":"V-component_of_CURRENTS"},"data":[0,0,0,0,0,0,0,0,0,0,0,0,0,0,0,0,0,0,0,0,0,0,0,0,0,0,0,0,0,0,0,0,0,0,0,0,0,0,0,0,0,0,0,0,0,0,0,0,0,0,0,0,0,0,0,0,0,0,0.0177,0.0176,0,0.0135,0.0135,0.0134,0.0106,0.0106,0.0106,0.0106,0.0033,0.0031,0.003,0,0,0,0,0,0,0,0,0,0,0,0,0,0.0194,0.0194,0.0177,0.0176,0.0176,0.0136,0.0135,0.0134,0.0106,0.0106,0.0106,0.0106,0.0034,0.0032,0.0029,0,0,0,0,0,0,0,0,0,0,0,0,0,0.0171,0.0194,0.0177,0.0159,0.0157,0.0136,0.0135,0.0134,0.0106,0.0106,0.0106,0.0106,0.0035,0.0032,0.0029,0.0011,0,0,0.002,0.0019,0,0,0,0,0,0,0,0,0.0172,0.017,0.0162,0.016,0.0158,0.0128,0.0114,0.0092,0.0106,0.0123,0.0106,0.0106,0.0063,0.0058,0.0048,0.0008,0.0005,0.002,0.0018,0.0017,0.0016,0,0,0,0,0,0,0,0.0174,0.0172,0.0158,0.0162,0.0159,0.014,0.0137,0.011,0.0092,0.0122,0.012,0.0119,0.0062,0.0051,0.0046,0.0004,0.002,0.0017,0.0016,0.0014,-0.0038,-0.0037,0,0,0,0,0,0,0.0186,0.0173,0.0159,0.0157,0.0168,0.014,0.0137,0.0136,0.0092,0.0087,0.0119,0.0118,0.0056,0.0049,0.0043,0.0041,0.0017,0.0014,0.0013,-0.0038,-0.0037,-0.0037,0,0,0,0,0,0,0.0186,0.0185,0.0161,0.0166,0.0162,0.0141,0.0139,0.0135,0.0127,0.0091,0.0084,0.0116,0.0055,0.0047,0.0031,0.0037,0.0013,0.001,-0.0038,-0.0038,-0.0037,0.0023,0,0,0,0,0,0,0.0187,0.0185,0.0186,0.0167,0.0162,0.0159,0.0139,0.0134,0.0127,0.0125,0.0086,0.0079,0.0055,0.0036,0.0029,0.0033,0.0008,-0.0039,-0.0038,-0.0037,0.0021,0.0026,0.003,0,0,0,0,0,0.0187,0.0195,0.0186,0.0185,0.0165,0.0159,0.0155,0.0138,0.0127,0.0129,0.0106,0.0081,0.0035,0.0034,0.0025,0.0029,-0.0039,-0.0038,-0.0037,0.0019,0.0025,0.003,0,0,0,0,0,0,0.0203,0.0193,0.0183,0.0186,0.0177,0.0156,0.0155,0.0142,0.0124,0.012,0.0085,0.0077,0.0064,0.0039,0.0039,0.0016,-0.0007,-0.0008,0.0039,0.0044,0.0049,0.0069,0.0006,0,0,0,0,0,0.0208,0.0208,0.0196,0.0197,0.0196,0.0174,0.0168,0.0158,0.0141,0.0133,0.0108,0.008,0.0059,0.0047,0.0022,0.001,-0.0014,0.0006,0.0011,0.0015,0.0026,-0.0004,-0.0001,-0.0034,-0.0034,-0.0034,0,0,0.0215,0.0207,0.0207,0.02,0.0189,0.0198,0.017,0.0167,0.0173,0.0127,0.0124,0.0093,0.0059,0.0048,0.0039,0.0029,0.0011,0.0016,0.002,0.0029,-0.0003,0.0001,0.0003,-0.0034,-0.0034,-0.0034,0,0,0.0234,0.0222,0.0233,0.0231,0.0222,0.0212,0.0215,0.0199,0.019,0.0181,0.0152,0.0132,0.0095,0.0078,0.0063,0.0077,0.0035,0.0063,0.0104,0.0075,0.0078,0.008,0.0053,0.0053,0.0067,0.0067,0.0067,0,0.0243,0.0256,0.0235,0.0248,0.0257,0.0225,0.0248,0.0233,0.0212,0.0213,0.0189,0.0145,0.0112,0.0107,0.0111,0.0088,0.0064,0.0087,0.0082,0.0084,0.0085,0.0057,0.0055,0.007,0.007,0.007,0.0069,0,0.0274,0.0286,0.0294,0.0302,0.0306,0.0318,0.0306,0.0301,0.0282,0.0268,0.0254,0.0207,0.0186,0.0166,0.0141,0.0136,0.0114,0.009,0.0071,0.0092,0.0061,0.0058,0.0075,0.0074,0.0073,0.0072,0,0,0.0296,0.0315,0.032,0.0342,0.034,0.0353,0.0359,0.0366,0.0382,0.034,0.0357,0.0303,0.0274,0.0255,0.0216,0.0188,0.0168,0.0147,0.0144,0.0127,0.0105,0.0078,0.0072,0.0141,0.0141,0.0141,0.008,0,0.0331,0.0378,0.0375,0.0424,0.0452,0.0435,0.0451,0.0448,0.0433,0.0438,0.0382,0.0374,0.0309,0.0301,0.0262,0.0199,0.0164,0.0187,0.0082,0.008,0.0058,0.0069,0.0094,0.004,0.0077,0.0077,0.0076,0,0.037,0.0398,0.0455,0.05,0.0512,0.0531,0.0563,0.0576,0.0563,0.0553,0.0525,0.0477,0.0436,0.0374,0.0269,0.0286,0.0202,0.0142,0.0137,0.0092,0.0048,0.0024,0.0033,0.0071,0.0072,0.0072,0.0072,0,0.0412,0.046,0.0511,0.0525,0.0562,0.0584,0.0605,0.061,0.0647,0.0629,0.0651,0.0572,0.0555,0.0436,0.0301,0.0284,0.0183,0.0143,0.0037,0.0034,0.0025,0.0021,0.0063,0.0063,0.0063,0.0063,0.0063,0,0.0458,0.05,0.0535,0.0565,0.0634,0.0638,0.0711,0.0713,0.0746,0.0807,0.0718,0.0742,0.057,0.0486,0.0339,0.0188,0.0207,0.005,0.0019,0.0046,0.0045,0.0047,0.0046,0.0061,0.0061,0.0062,0.0062,0,0.0496,0.0516,0.0584,0.0635,0.0656,0.0708,0.0798,0.0857,0.0866,0.0942,0.0944,0.0882,0.0766,0.0585,0.0401,0.0258,0.0101,0.0038,0.0082,0.0056,-0.0041,-0.0038,-0.0086,-0.0088,-0.0089,-0.009,-0.0091,0,0.0523,0.0557,0.0639,0.0691,0.0717,0.0797,0.0865,0.0912,0.099,0.1033,0.1085,0.0993,0.0947,0.0668,0.0397,0.0138,0.01,-0.0018,-0.0054,-0.0029,-0.0055,-0.005,-0.0046,-0.0044,-0.0044,-0.0044,-0.0045,0,0.0575,0.0598,0.0655,0.076,0.0841,0.0948,0.1048,0.1129,0.1194,0.125,0.1303,0.1262,0.0998,0.0737,0.0374,0.0196,0.0021,-0.0034,-0.0012,-0.001,0.0006,-0.0018,-0.0014,-0.0047,-0.0047,-0.0047,-0.0047,-0.0047,0.0615,0.0666,0.0741,0.0842,0.0942,0.1079,0.1182,0.1292,0.1415,0.1496,0.1456,0.1398,0.1099,0.0635,0.0327,-0.0,0.001,-0.0113,-0.011,-0.0107,-0.0091,-0.0078,-0.0144,-0.0145,-0.0145,-0.0145,-0.0145,0,0.0671,0.0727,0.0822,0.0951,0.1069,0.1116,0.1295,0.1394,0.1536,0.1585,0.1609,0.1318,0.1025,0.0683,0.0199,-0.009,-0.0106,-0.0184,-0.0139,-0.0134,-0.0131,-0.0115,-0.0175,-0.0176,-0.0177,-0.0178,0,0,0.0703,0.0795,0.0842,0.103,0.1127,0.13,0.1408,0.1534,0.1609,0.1644,0.1604,0.1533,0.1122,0.0767,0.0375,0.0098,0.0049,0.0044,0.0099,0.0203,0.021,-0.006,-0.0027,0,0,0,0,0]}],[{"header":{"parameterUnit":"m.s-1","parameterCategory":2,"la1":30.2991,"la2":30.254,"lo1":-89.0895,"lo2":-89.0444,"dy":0.0017,"dx":0.0017,"nx":28,"ny":28,"refTime":"2025-12-23T09:00:00:Z","depth":"4","parameterNumber":2,"parameterNumberName":"U-component_of_CURRENTS"},"data":[0,0,0,0,0,0,0,0,0,0,0,0,0,0,0,0,0,0,0,0,0,0,0,0,0,0,0,0,0,0,0,0,0,0,0,0,0,0,0,0,0,0,0,0,0,0,0,0,0,0,0,0,0,0,0,0,0,0,0.1495,0.1496,0,0.1574,0.1575,0.1575,0.1627,0.1628,0.1629,0.1629,0.171,0.1712,0.1713,0,0,0,0,0,0,0,0,0,0,0,0,0,0.1384,0.1386,0.1495,0.1497,0.1498,0.1574,0.1575,0.1576,0.1627,0.1628,0.1629,0.163,0.171,0.1712,0.1713,0,0,0,0,0,0,0,0,0,0,0,0,0,0.1442,0.1386,0.1495,0.1535,0.154,0.1574,0.1575,0.1576,0.1627,0.1628,0.1629,0.163,0.1709,0.1711,0.1714,0.171,0,0,0.1721,0.1722,0,0,0,0,0,0,0,0,0.1439,0.1446,0.1528,0.1532,0.1538,0.1594,0.1566,0.1622,0.1627,0.1591,0.1629,0.163,0.1673,0.1678,0.1687,0.1714,0.1717,0.1721,0.1723,0.1724,0.1724,0,0,0,0,0,0,0,0.1434,0.1442,0.1524,0.1529,0.1535,0.1547,0.1556,0.1576,0.1623,0.1594,0.1599,0.1612,0.1675,0.1684,0.1689,0.1718,0.1721,0.1723,0.1725,0.1726,0.185,0.1851,0,0,0,0,0,0,0.143,0.1439,0.1521,0.1526,0.1493,0.1549,0.1559,0.1573,0.1623,0.1633,0.1611,0.1614,0.168,0.1686,0.1692,0.1778,0.1724,0.1726,0.1727,0.1848,0.185,0.1852,0,0,0,0,0,0,0.1427,0.1437,0.1518,0.1486,0.1498,0.155,0.1565,0.1574,0.162,0.1637,0.1646,0.1653,0.1681,0.1689,0.1741,0.1778,0.1727,0.1729,0.1846,0.1849,0.1851,0.1892,0,0,0,0,0,0,0.1424,0.1435,0.146,0.1486,0.15,0.1561,0.1565,0.1575,0.1626,0.1632,0.1675,0.1681,0.1682,0.1737,0.1743,0.178,0.1731,0.1843,0.1847,0.185,0.1889,0.1896,0.1903,0,0,0,0,0,0.142,0.1442,0.1461,0.1472,0.1527,0.1562,0.1571,0.1608,0.1627,0.1652,0.1683,0.1682,0.1764,0.174,0.1747,0.1786,0.1842,0.1846,0.185,0.1885,0.1895,0.1903,0,0,0,0,0,0,0.1406,0.145,0.1472,0.1508,0.1545,0.1573,0.1604,0.1628,0.1672,0.169,0.1701,0.1709,0.1771,0.1774,0.1748,0.1834,0.1805,0.181,0.183,0.1838,0.1845,0.1853,0.1733,0,0,0,0,0,0.1415,0.1448,0.1486,0.152,0.1541,0.158,0.1607,0.1635,0.1669,0.1692,0.1721,0.1755,0.1787,0.181,0.1837,0.1879,0.1891,0.1912,0.1919,0.1924,0.1937,0.1983,0.1995,0.1866,0.1866,0.1866,0,0,0.1416,0.1451,0.1468,0.1522,0.1554,0.1587,0.1599,0.1651,0.1689,0.1693,0.176,0.1785,0.1805,0.1855,0.1883,0.1866,0.1968,0.193,0.1934,0.1944,0.1988,0.2001,0.2012,0.1869,0.1868,0.1868,0,0,0.1429,0.1471,0.1501,0.1534,0.1596,0.1619,0.1643,0.1693,0.1731,0.1787,0.1805,0.1853,0.1899,0.1922,0.1936,0.2,0.2006,0.2017,0.2058,0.2101,0.2112,0.2122,0.2152,0.2164,0.2018,0.2018,0.2018,0,0.1438,0.1477,0.1515,0.1552,0.1583,0.1636,0.1671,0.1713,0.1778,0.1811,0.1819,0.191,0.1928,0.1988,0.2014,0.2017,0.2041,0.2019,0.211,0.2119,0.2129,0.2157,0.217,0.2021,0.202,0.202,0.202,0,0.1458,0.1504,0.1526,0.1589,0.1626,0.167,0.1724,0.1778,0.1828,0.1866,0.1951,0.1982,0.2034,0.2051,0.2053,0.2133,0.2129,0.2113,0.2084,0.2144,0.217,0.2183,0.2024,0.2023,0.2022,0.2022,0,0,0.1444,0.1525,0.1539,0.1572,0.1653,0.168,0.1753,0.1823,0.188,0.1947,0.2015,0.2077,0.2109,0.213,0.2149,0.219,0.2271,0.2188,0.2189,0.221,0.2373,0.2222,0.2221,0.2276,0.2279,0.2281,0.2364,0,0.1458,0.1518,0.1561,0.1625,0.1656,0.1724,0.1782,0.1855,0.1925,0.2005,0.2062,0.2139,0.2136,0.218,0.2221,0.2266,0.2308,0.225,0.2318,0.232,0.2173,0.2231,0.2288,0.2373,0.2376,0.2378,0.238,0,0.1461,0.1506,0.1562,0.1644,0.1666,0.1716,0.182,0.188,0.1995,0.2055,0.214,0.2195,0.2286,0.227,0.2374,0.2343,0.237,0.2391,0.2394,0.2249,0.2193,0.2303,0.2402,0.24,0.2399,0.2397,0.2396,0,0.1415,0.1504,0.155,0.1577,0.1676,0.1727,0.179,0.19,0.1966,0.2106,0.2173,0.2274,0.235,0.24,0.2457,0.2432,0.2557,0.2518,0.2406,0.2395,0.2486,0.2475,0.2591,0.2591,0.259,0.259,0.259,0,0.1392,0.1433,0.1539,0.1563,0.1631,0.1709,0.1801,0.1882,0.2009,0.2081,0.2204,0.2278,0.2394,0.2473,0.2494,0.2489,0.2589,0.2426,0.2411,0.2501,0.2491,0.2494,0.2482,0.2593,0.2593,0.2592,0.2591,0,0.1321,0.1391,0.145,0.1566,0.161,0.1658,0.18,0.1855,0.1998,0.21,0.2155,0.232,0.2417,0.2502,0.2597,0.2527,0.2542,0.2516,0.2624,0.2611,0.234,0.233,0.2385,0.238,0.2376,0.2373,0.237,0,0.1283,0.131,0.1438,0.1474,0.1534,0.1626,0.1684,0.1833,0.1892,0.2098,0.2127,0.2296,0.2381,0.24,0.2495,0.2525,0.2497,0.2483,0.2391,0.2342,0.2322,0.2317,0.2312,0.2364,0.2363,0.2362,0.2361,0,0.1215,0.1277,0.1327,0.1404,0.1473,0.1533,0.1631,0.1666,0.1826,0.1976,0.2059,0.2129,0.2236,0.2306,0.236,0.2371,0.2474,0.2442,0.2449,0.2363,0.2318,0.2301,0.23,0.2348,0.235,0.2351,0.2352,0,0.1172,0.1186,0.1264,0.1319,0.1395,0.1416,0.1482,0.1555,0.1638,0.1854,0.1878,0.2054,0.2207,0.2228,0.2272,0.228,0.2234,0.2144,0.2166,0.2182,0.2076,0.1986,0.1912,0,0,0,0,0,0.1121,0.1124,0.1169,0.1217,0.1284,0.1327,0.1433,0.15,0.1658,0.1662,0.1766,0.1854,0.1941,0.2041,0.2007,0.2178,0.2238,0.2128,0.2144,0.2274,0.229,0.2183,0,0,0,0,0,0,0.1083,0.1122,0.1133,0.1124,0.1135,0.1191,0.125,0.1353,0.1367,0.1539,0.1602,0.1735,0.1853,0.1943,0.1972,0.1998,0.1967,0.2239,0.2234,0.2266,0.228,0.2292,0.2188,0,0,0,0,0]},{"header":{"parameterUnit":"m.s-1","parameterCategory":2,"la1":30.2991,"la2":30.254,"lo1":-89.0895,"lo2":-89.0444,"dy":0.0017,"dx":0.0017,"nx":28,"ny":28,"refTime":"2025-12-23T09:00:00:Z","depth":"4","parameterNumber":3,"parameterNumberName":"V-component_of_CURRENTS"},"data":[0,0,0,0,0,0,0,0,0,0,0,0,0,0,0,0,0,0,0,0,0,0,0,0,0,0,0,0,0,0,0,0,0,0,0,0,0,0,0,0,0,0,0,0,0,0,0,0,0,0,0,0,0,0,0,0,0,0,0.0196,0.0196,0,0.0168,0.0167,0.0167,0.0152,0.0152,0.0152,0.0152,0.0108,0.0106,0.0105,0,0,0,0,0,0,0,0,0,0,0,0,0,0.0205,0.0205,0.0196,0.0196,0.0196,0.0168,0.0167,0.0167,0.0152,0.0152,0.0152,0.0152,0.0108,0.0106,0.0105,0,0,0,0,0,0,0,0,0,0,0,0,0,0.019,0.0205,0.0196,0.0186,0.0185,0.0168,0.0167,0.0166,0.0152,0.0152,0.0152,0.0152,0.0108,0.0107,0.0105,0.0089,0,0,0.0099,0.0098,0,0,0,0,0,0,0,0,0.0191,0.0189,0.0188,0.0187,0.0186,0.0165,0.0154,0.014,0.0152,0.0163,0.0152,0.0152,0.0126,0.0123,0.0115,0.0087,0.0085,0.0099,0.0097,0.0097,0.0096,0,0,0,0,0,0,0,0.0192,0.019,0.0183,0.0188,0.0186,0.0172,0.017,0.0151,0.0142,0.0162,0.0161,0.016,0.0125,0.0117,0.0114,0.0085,0.0099,0.0097,0.0096,0.0095,0.0055,0.0055,0,0,0,0,0,0,0.02,0.0191,0.0184,0.0183,0.019,0.0172,0.0169,0.017,0.0143,0.0139,0.016,0.016,0.012,0.0116,0.0112,0.0114,0.0097,0.0095,0.0094,0.0055,0.0055,0.0056,0,0,0,0,0,0,0.02,0.0199,0.0186,0.0187,0.0185,0.0172,0.0172,0.0169,0.0166,0.0142,0.0138,0.016,0.012,0.0115,0.0106,0.0111,0.0094,0.0092,0.0055,0.0055,0.0055,0.0104,0,0,0,0,0,0,0.02,0.02,0.0202,0.0188,0.0185,0.0183,0.0172,0.0169,0.0166,0.0165,0.0141,0.0136,0.012,0.0109,0.0104,0.0108,0.0091,0.0055,0.0055,0.0055,0.0102,0.0105,0.0108,0,0,0,0,0,0.0201,0.0208,0.0202,0.0201,0.0189,0.0183,0.018,0.017,0.0166,0.0167,0.0154,0.0137,0.0107,0.0108,0.0102,0.0106,0.0055,0.0055,0.0055,0.01,0.0105,0.0108,0,0,0,0,0,0,0.0213,0.0206,0.02,0.0205,0.0197,0.0181,0.0182,0.0174,0.0163,0.0163,0.0141,0.0136,0.0129,0.0109,0.0111,0.0094,0.0077,0.0076,0.0113,0.0117,0.012,0.0133,0.0089,0,0,0,0,0,0.0217,0.0218,0.0209,0.0211,0.0211,0.0196,0.0193,0.0185,0.0175,0.0171,0.0155,0.0137,0.0124,0.0116,0.0099,0.009,0.0063,0.0087,0.009,0.0093,0.0099,0.0063,0.0064,0.0056,0.0056,0.0056,0,0,0.0221,0.0217,0.0219,0.0214,0.0207,0.0213,0.0195,0.0193,0.0197,0.0167,0.0169,0.0149,0.0124,0.0117,0.0111,0.0103,0.008,0.0094,0.0096,0.0101,0.0063,0.0064,0.0065,0.0057,0.0056,0.0056,0,0,0.0235,0.023,0.0238,0.0236,0.0231,0.0225,0.0227,0.0216,0.0212,0.0208,0.0189,0.0176,0.0152,0.0139,0.0128,0.0137,0.0099,0.0128,0.0154,0.012,0.012,0.012,0.0084,0.0081,0.0129,0.0129,0.0129,0,0.024,0.0251,0.0239,0.0248,0.0256,0.0235,0.0251,0.0241,0.0228,0.0228,0.0215,0.0185,0.0164,0.0157,0.0161,0.0145,0.0117,0.0144,0.0125,0.0124,0.0123,0.0086,0.0082,0.0131,0.0131,0.0131,0.013,0,0.0261,0.0272,0.0278,0.0286,0.029,0.0299,0.0291,0.029,0.0281,0.027,0.026,0.0228,0.0213,0.02,0.0184,0.0171,0.015,0.0134,0.0117,0.0127,0.0087,0.0082,0.0135,0.0134,0.0133,0.0132,0,0,0.0272,0.029,0.0294,0.0312,0.0315,0.0324,0.0332,0.0336,0.0347,0.0319,0.0327,0.0294,0.0273,0.0259,0.0231,0.02,0.0168,0.0169,0.0166,0.0138,0.0088,0.0071,0.0063,0.0147,0.0147,0.0146,0.0061,0,0.0295,0.033,0.0331,0.0368,0.039,0.0382,0.0396,0.0394,0.0385,0.0384,0.0342,0.0337,0.0296,0.0292,0.0253,0.0194,0.0156,0.0193,0.0078,0.0075,0.0062,0.0057,0.0144,0.0057,0.0056,0.0055,0.0054,0,0.0319,0.0342,0.0386,0.0423,0.0433,0.045,0.0478,0.0486,0.0472,0.0466,0.0442,0.0406,0.0365,0.0327,0.022,0.0244,0.0173,0.0117,0.0112,0.0078,0.0048,0.0044,0.0044,0.0044,0.0045,0.0046,0.0047,0,0.0345,0.0384,0.0425,0.0437,0.047,0.0491,0.0509,0.0512,0.0537,0.052,0.053,0.0462,0.044,0.0338,0.0221,0.022,0.0095,0.0077,-0.0009,-0.0011,0.0009,0.001,-0.0002,-0.0002,-0.0002,-0.0001,-0.0001,0,0.0372,0.0406,0.0444,0.0467,0.0523,0.0531,0.0588,0.0589,0.0609,0.0641,0.0578,0.0578,0.0441,0.0353,0.0236,0.0096,0.0102,-0.0005,-0.0034,0.003,0.0034,0.0004,0.0006,-0.0005,-0.0004,-0.0003,-0.0003,0,0.0392,0.0414,0.0468,0.0517,0.0538,0.058,0.0653,0.069,0.0697,0.0735,0.0735,0.0666,0.0546,0.0397,0.023,0.0127,-0.0011,-0.0063,0.0018,-0.0005,-0.0099,-0.0094,-0.0167,-0.0169,-0.017,-0.0171,-0.0171,0,0.0405,0.0434,0.0508,0.0551,0.0577,0.0646,0.0695,0.0732,0.0777,0.0787,0.0806,0.0709,0.0639,0.0395,0.0228,-0.0005,-0.0039,-0.0115,-0.0111,-0.0096,-0.0117,-0.0109,-0.0103,-0.0173,-0.0173,-0.0174,-0.0174,0,0.0429,0.0457,0.0502,0.059,0.0654,0.0736,0.0808,0.0847,0.0885,0.0893,0.0865,0.0736,0.0599,0.04,0.0216,0.005,-0.0069,-0.0127,-0.0126,-0.0123,-0.0104,-0.0122,-0.0114,-0.0178,-0.0177,-0.0177,-0.0177,0,0.0448,0.0485,0.0547,0.0626,0.071,0.0794,0.0836,0.0885,0.0927,0.093,0.0916,0.0765,0.068,0.0428,0.0261,0.0091,0.0045,-0.0014,-0.0019,-0.0017,0.0047,0.0094,0.0057,0,0,0,0,0,0.0462,0.0505,0.0579,0.0667,0.0753,0.0808,0.0896,0.0931,0.0963,0.0951,0.0938,0.0808,0.0559,0.0456,0.0283,0.0226,0.0006,0.0015,-0.0066,-0.0199,-0.0194,-0.0147,0,0,0,0,0,0,0.0471,0.0536,0.0575,0.0686,0.0752,0.0854,0.0913,0.094,0.0938,0.0939,0.0815,0.0755,0.0518,0.0657,0.0277,0.0226,0.0147,-0.0097,-0.0101,-0.0201,-0.0197,-0.0194,-0.0144,0,0,0,0,0]}]]